When you browse on this site, cookies collect data to enhance your experience and personalize the content and advertising you see.
Visit our Privacy Policy to learn more. By continuing to use the site, you agree to this use of cookies and data.
  • In Hungary
  • List of Countries
  • For 7 days
  • Water Temperature
  • Satellite Maps
  • Weather Map
  • News
  • Weather Widgets
  • user-avatar
    Login

    Hourly Weather Verhnyaya Tatarskaya Mayna

    Today, 27 May, Monday

    Time Temperature Precipitation Wind Pressure Humidity
    00:00 +15°C° 0 mm 4 mps 745 mmHg 91%
    01:00 +14°C° 0 mm 5 mps 745 mmHg 92%
    02:00 +14°C° 0 mm 5 mps 745 mmHg 93%
    03:00 +13°C° 0 mm 5 mps 744 mmHg 94%
    04:00 +14°C° 0 mm 5 mps 744 mmHg 92%
    05:00 +15°C° 0 mm 6 mps 744 mmHg 90%
    06:00 +15°C° 0 mm 6 mps 744 mmHg 89%
    07:00 +16°C° 0.4 mm 6 mps 744 mmHg 87%
    08:00 +16°C° 0.4 mm 7 mps 744 mmHg 86%
    09:00 +17°C° 0.4 mm 7 mps 744 mmHg 85%
    10:00 +16°C° 0.8 mm 7 mps 744 mmHg 87%
    11:00 +16°C° 0.8 mm 6 mps 744 mmHg 90%
    12:00 +15°C° 0.8 mm 6 mps 744 mmHg 92%
    13:00 +16°C° 0.2 mm 6 mps 744 mmHg 88%
    14:00 +19°C° 0.2 mm 6 mps 744 mmHg 84%
    15:00 +20°C° 0.2 mm 6 mps 744 mmHg 80%
    16:00 +20°C° 0.3 mm 5 mps 744 mmHg 82%
    17:00 +20°C° 0.3 mm 5 mps 744 mmHg 83%
    18:00 +20°C° 0.3 mm 4 mps 745 mmHg 84%
    19:00 +18°C° 0.2 mm 4 mps 745 mmHg 87%
    20:00 +17°C° 0.2 mm 4 mps 746 mmHg 89%
    21:00 +16°C° 0.2 mm 3 mps 747 mmHg 91%
    22:00 +14°C° 0 mm 3 mps 747 mmHg 91%
    23:00 +13°C° 0 mm 3 mps 748 mmHg 90%

    Tomorrow, 28 May, Tuesday

    Time Temperature Precipitation Wind Pressure Humidity
    00:00 +12°C° 0 mm 3 mps 748 mmHg 89%
    01:00 +11°C° 0 mm 3 mps 748 mmHg 88%
    02:00 +11°C° 0 mm 3 mps 749 mmHg 88%
    03:00 +10°C° 0 mm 2 mps 749 mmHg 87%
    04:00 +12°C° 0 mm 2 mps 750 mmHg 85%
    05:00 +13°C° 0 mm 2 mps 750 mmHg 83%
    06:00 +14°C° 0 mm 2 mps 751 mmHg 80%
    07:00 +16°C° 0 mm 2 mps 751 mmHg 75%
    08:00 +17°C° 0 mm 2 mps 751 mmHg 70%
    09:00 +19°C° 0 mm 3 mps 752 mmHg 65%
    10:00 +20°C° 0 mm 3 mps 751 mmHg 63%
    11:00 +21°C° 0 mm 4 mps 751 mmHg 60%
    12:00 +21°C° 0 mm 4 mps 751 mmHg 58%
    13:00 +22°C° 0 mm 4 mps 751 mmHg 59%
    14:00 +22°C° 0 mm 4 mps 751 mmHg 61%
    15:00 +22°C° 0 mm 4 mps 751 mmHg 62%
    16:00 +22°C° 0 mm 3 mps 751 mmHg 66%
    17:00 +22°C° 0 mm 3 mps 751 mmHg 70%
    18:00 +23°C° 0 mm 2 mps 751 mmHg 75%
    19:00 +20°C° 0 mm 2 mps 752 mmHg 80%
    20:00 +19°C° 0 mm 2 mps 752 mmHg 84%
    21:00 +17°C° 0 mm 2 mps 752 mmHg 89%
    22:00 +17°C° 0 mm 2 mps 752 mmHg 90%
    23:00 +16°C° 0 mm 2 mps 752 mmHg 91%

    Day after tomorrow, 29 May, Wednesday

    Time Temperature Precipitation Wind Pressure Humidity
    00:00 +16°C° 0 mm 2 mps 752 mmHg 92%
    01:00 +16°C° 0 mm 2 mps 753 mmHg 92%
    02:00 +16°C° 0 mm 2 mps 753 mmHg 93%
    03:00 +15°C° 0 mm 2 mps 753 mmHg 93%
    04:00 +16°C° 0 mm 2 mps 753 mmHg 91%
    05:00 +18°C° 0 mm 1 mps 754 mmHg 88%
    06:00 +19°C° 0 mm 1 mps 754 mmHg 85%
    07:00 +21°C° 0 mm 1 mps 754 mmHg 80%
    08:00 +22°C° 0 mm 1 mps 754 mmHg 76%
    09:00 +23°C° 0 mm 1 mps 754 mmHg 71%
    10:00 +24°C° 0 mm 2 mps 754 mmHg 67%
    11:00 +25°C° 0 mm 2 mps 754 mmHg 64%
    12:00 +26°C° 0 mm 2 mps 754 mmHg 60%
    13:00 +27°C° 0 mm 2 mps 754 mmHg 60%
    14:00 +27°C° 0 mm 3 mps 754 mmHg 60%
    15:00 +27°C° 0 mm 3 mps 754 mmHg 60%
    16:00 +27°C° 0 mm 3 mps 754 mmHg 64%
    17:00 +26°C° 0 mm 2 mps 754 mmHg 68%
    18:00 +26°C° 0 mm 2 mps 754 mmHg 72%
    19:00 +24°C° 0 mm 2 mps 754 mmHg 75%
    20:00 +23°C° 0 mm 2 mps 754 mmHg 78%
    21:00 +20°C° 0 mm 2 mps 754 mmHg 82%
    22:00 +20°C° 0 mm 2 mps 754 mmHg 84%
    23:00 +19°C° 0 mm 2 mps 754 mmHg 85%

    30 May, Thursday

    Time Temperature Precipitation Wind Pressure Humidity
    00:00 +19°C° 0 mm 2 mps 754 mmHg 87%
    01:00 +19°C° 0 mm 2 mps 754 mmHg 89%
    02:00 +18°C° 0 mm 2 mps 755 mmHg 91%
    03:00 +18°C° 0 mm 2 mps 755 mmHg 92%
    04:00 +19°C° 0 mm 2 mps 755 mmHg 90%
    05:00 +20°C° 0 mm 2 mps 755 mmHg 88%
    06:00 +21°C° 0 mm 2 mps 755 mmHg 86%
    07:00 +23°C° 0 mm 2 mps 755 mmHg 81%
    08:00 +25°C° 0 mm 2 mps 755 mmHg 76%
    09:00 +26°C° 0 mm 2 mps 755 mmHg 71%
    10:00 +27°C° 0.1 mm 2 mps 755 mmHg 68%
    11:00 +28°C° 0.1 mm 3 mps 755 mmHg 65%
    12:00 +29°C° 0.1 mm 3 mps 755 mmHg 61%
    13:00 +29°C° 0 mm 3 mps 754 mmHg 61%
    14:00 +29°C° 0 mm 3 mps 754 mmHg 60%
    15:00 +29°C° 0 mm 3 mps 754 mmHg 60%
    16:00 +29°C° 0 mm 3 mps 754 mmHg 64%
    17:00 +28°C° 0 mm 2 mps 754 mmHg 67%
    18:00 +27°C° 0 mm 2 mps 754 mmHg 71%
    19:00 +26°C° 0 mm 2 mps 754 mmHg 74%
    20:00 +24°C° 0 mm 2 mps 754 mmHg 76%
    21:00 +23°C° 0 mm 2 mps 754 mmHg 79%
    22:00 +21°C° 0 mm 2 mps 754 mmHg 80%
    23:00 +21°C° 0 mm 2 mps 755 mmHg 82%

    31 May, Friday

    Time Temperature Precipitation Wind Pressure Humidity
    00:00 +20°C° 0 mm 2 mps 755 mmHg 83%
    01:00 +20°C° 0 mm 2 mps 755 mmHg 85%
    02:00 +19°C° 0 mm 2 mps 755 mmHg 87%
    03:00 +19°C° 0 mm 2 mps 755 mmHg 89%
    04:00 +20°C° 0 mm 2 mps 755 mmHg 86%
    05:00 +21°C° 0 mm 2 mps 755 mmHg 83%
    06:00 +23°C° 0 mm 1 mps 755 mmHg 81%
    07:00 +24°C° 0 mm 2 mps 755 mmHg 75%
    08:00 +26°C° 0 mm 2 mps 755 mmHg 70%
    09:00 +27°C° 0 mm 2 mps 755 mmHg 65%
    10:00 +28°C° 0 mm 2 mps 755 mmHg 61%
    11:00 +28°C° 0 mm 3 mps 754 mmHg 57%
    12:00 +29°C° 0 mm 3 mps 754 mmHg 53%
    13:00 +29°C° 0 mm 3 mps 754 mmHg 53%
    14:00 +29°C° 0 mm 3 mps 754 mmHg 53%
    15:00 +29°C° 0 mm 3 mps 753 mmHg 52%
    16:00 +29°C° 0 mm 3 mps 754 mmHg 57%
    17:00 +28°C° 0 mm 2 mps 754 mmHg 61%
    18:00 +27°C° 0 mm 2 mps 754 mmHg 66%
    19:00 +26°C° 0 mm 2 mps 754 mmHg 67%
    20:00 +24°C° 0 mm 1 mps 754 mmHg 69%
    21:00 +23°C° 0 mm 1 mps 754 mmHg 71%
    22:00 +22°C° 0 mm 1 mps 754 mmHg 73%
    23:00 +22°C° 0 mm 1 mps 754 mmHg 74%

    1 June, Saturday

    Time Temperature Precipitation Wind Pressure Humidity
    00:00 +20°C° 0 mm 2 mps 754 mmHg 76%
    01:00 +20°C° 0 mm 2 mps 754 mmHg 78%
    02:00 +20°C° 0 mm 2 mps 754 mmHg 81%
    03:00 +19°C° 0 mm 2 mps 754 mmHg 83%
    04:00 +20°C° 0 mm 2 mps 754 mmHg 81%
    05:00 +22°C° 0 mm 1 mps 754 mmHg 80%
    06:00 +23°C° 0 mm 1 mps 754 mmHg 79%
    07:00 +25°C° 0 mm 2 mps 754 mmHg 73%
    08:00 +26°C° 0 mm 2 mps 754 mmHg 67%
    09:00 +28°C° 0 mm 2 mps 754 mmHg 62%
    10:00 +28°C° 0 mm 2 mps 754 mmHg 57%
    11:00 +29°C° 0 mm 2 mps 754 mmHg 53%
    12:00 +30°C° 0 mm 2 mps 754 mmHg 49%
    13:00 +30°C° 0 mm 2 mps 753 mmHg 48%
    14:00 +30°C° 0 mm 2 mps 753 mmHg 48%
    15:00 +30°C° 0 mm 2 mps 753 mmHg 48%
    16:00 +30°C° 0 mm 2 mps 753 mmHg 52%
    17:00 +29°C° 0 mm 2 mps 753 mmHg 56%
    18:00 +28°C° 0 mm 1 mps 753 mmHg 61%
    19:00 +27°C° 0 mm 1 mps 753 mmHg 62%
    20:00 +25°C° 0 mm 1 mps 753 mmHg 64%
    21:00 +23°C° 0 mm 1 mps 753 mmHg 65%
    22:00 +23°C° 0 mm 1 mps 753 mmHg 67%
    23:00 +22°C° 0 mm 1 mps 753 mmHg 69%
    Show more